FIN280 ENSB-BIKF

Flight info

Callsign FIN280
Flight time 2h 36m
Altitude 34000
Route INPAR DCT EXITA/M080F340 DCT 73N009W 70N014W DCT DEVUD DEVUD3K
Aircraft B738/M-SDE2E3FGHIRWXY/LB1

Departure

Time 2026-04-28 22:57
Airport Svalbard Airport, Longyear (ENSB)

Arrival

Time 2026-04-29 01:33
Airport Keflavik International Airport (BIKF)
Time Latitude Longitude Altitude Speed Heading
2026-04-28 22:49 78.24566 15.49529 90 ft 0 kts 15°
2026-04-28 22:54 78.24567 15.49528 87 ft 0 kts 10°
2026-04-28 22:55 78.24579 15.49447 90 ft 8 kts 307°
2026-04-28 22:55 78.24591 15.49186 91 ft 3 kts 217°
2026-04-28 22:55 78.24559 15.49345 89 ft 8 kts 129°
2026-04-28 22:55 78.24504 15.49448 87 ft 11 kts 176°
2026-04-28 22:56 78.24459 15.49336 87 ft 7 kts 264°
2026-04-28 22:56 78.24476 15.48998 91 ft 27 kts 285°
2026-04-28 22:56 78.24586 15.47009 87 ft 93 kts 285°
2026-04-28 22:56 78.24810 15.43010 89 ft 148 kts 284°
2026-04-28 22:57 78.25068 15.37496 276 ft 175 kts 279°
2026-04-28 22:57 78.25112 15.31437 802 ft 184 kts 258°
2026-04-28 22:57 78.24500 15.26048 1365 ft 187 kts 208°
2026-04-28 22:57 78.23285 15.23748 2041 ft 196 kts 202°
2026-04-28 22:58 78.22245 15.19049 2229 ft 217 kts 233°
2026-04-28 22:58 78.21393 15.12739 2499 ft 226 kts 235°
2026-04-28 22:58 78.20539 15.05959 2654 ft 242 kts 237°
2026-04-28 22:58 78.19701 14.98736 3113 ft 245 kts 238°
2026-04-28 22:59 78.18908 14.91439 4022 ft 242 kts 239°
2026-04-28 22:59 78.18150 14.84150 4971 ft 240 kts 240°
2026-04-28 22:59 78.17660 14.79310 5508 ft 242 kts 240°
2026-04-28 22:59 78.16918 14.71858 6217 ft 248 kts 240°
2026-04-28 23:00 78.16164 14.64150 6958 ft 252 kts 241°
2026-04-28 23:00 78.15424 14.56473 7706 ft 254 kts 241°
2026-04-28 23:00 78.14665 14.48555 8452 ft 257 kts 242°
2026-04-28 23:00 78.13912 14.40692 9180 ft 260 kts 242°
2026-04-28 23:01 78.13148 14.32694 9920 ft 263 kts 242°
2026-04-28 23:01 78.12378 14.24656 10486 ft 271 kts 242°
2026-04-28 23:01 78.11546 14.16013 10672 ft 293 kts 243°
2026-04-28 23:01 78.10647 14.06694 10849 ft 314 kts 243°
2026-04-28 23:02 78.09695 13.96845 11013 ft 334 kts 243°
2026-04-28 23:02 78.08683 13.86377 11145 ft 352 kts 243°
2026-04-28 23:02 78.07612 13.75401 11400 ft 366 kts 243°
2026-04-28 23:02 78.06510 13.64180 11907 ft 371 kts 243°
2026-04-28 23:03 78.05383 13.52935 12536 ft 373 kts 242°
2026-04-28 23:03 78.04194 13.41725 13150 ft 376 kts 241°
2026-04-28 23:03 78.02969 13.30487 13751 ft 379 kts 241°
2026-04-28 23:03 78.01731 13.19244 14262 ft 383 kts 241°
2026-04-28 23:04 78.00488 13.07992 14770 ft 386 kts 242°
2026-04-28 23:04 77.97944 12.85048 15823 ft 391 kts 242°
2026-04-28 23:04 77.96659 12.73520 16287 ft 395 kts 242°
2026-04-28 23:05 77.95353 12.61845 16779 ft 398 kts 242°
2026-04-28 23:05 77.94043 12.50205 17517 ft 393 kts 242°
2026-04-28 23:05 77.92748 12.38747 18321 ft 390 kts 242°
2026-04-28 23:05 77.91451 12.27349 18818 ft 391 kts 242°
2026-04-28 23:06 77.90142 12.15895 19139 ft 396 kts 242°
2026-04-28 23:06 77.88825 12.04439 19546 ft 398 kts 242°
2026-04-28 23:06 77.87461 11.92640 20001 ft 400 kts 241°
2026-04-28 23:06 77.86106 11.80992 20293 ft 406 kts 241°
2026-04-28 23:07 77.84732 11.69247 20730 ft 407 kts 241°
2026-04-28 23:07 77.83343 11.57447 21126 ft 409 kts 241°
2026-04-28 23:07 77.81965 11.45813 21494 ft 412 kts 241°
2026-04-28 23:07 77.80545 11.33884 21658 ft 419 kts 241°
2026-04-28 23:08 77.79104 11.21860 22179 ft 417 kts 241°
2026-04-28 23:08 77.77663 11.09904 22577 ft 419 kts 240°
2026-04-28 23:08 77.76209 10.97906 22894 ft 423 kts 240°
2026-04-28 23:08 77.74734 10.85810 23210 ft 425 kts 240°
2026-04-28 23:09 77.73265 10.73833 23812 ft 421 kts 240°
2026-04-28 23:09 77.71796 10.61920 24167 ft 421 kts 240°
2026-04-28 23:09 77.70330 10.50107 24372 ft 425 kts 239°
2026-04-28 23:09 77.68838 10.38162 24742 ft 425 kts 239°
2026-04-28 23:10 77.67334 10.26181 25088 ft 425 kts 239°
2026-04-28 23:10 77.65825 10.14229 25267 ft 429 kts 239°
2026-04-28 23:10 77.64303 10.02249 25732 ft 426 kts 239°
2026-04-28 23:10 77.62791 9.90421 26136 ft 425 kts 239°
2026-04-28 23:11 77.61275 9.78624 26506 ft 424 kts 239°
2026-04-28 23:11 77.59756 9.66874 26892 ft 423 kts 239°
2026-04-28 23:11 77.58246 9.55264 27430 ft 418 kts 239°
2026-04-28 23:11 77.56732 9.43687 27799 ft 418 kts 239°
2026-04-28 23:12 77.55213 9.32129 28085 ft 419 kts 239°
2026-04-28 23:12 77.53710 9.20761 28513 ft 418 kts 240°
2026-04-28 23:12 77.52190 9.09330 28947 ft 416 kts 240°
2026-04-28 23:12 77.50664 8.97917 29149 ft 419 kts 239°
2026-04-28 23:13 77.49131 8.86524 29598 ft 416 kts 240°
2026-04-28 23:13 77.47598 8.75185 29946 ft 416 kts 240°
2026-04-28 23:13 77.46065 8.63905 30229 ft 416 kts 239°
2026-04-28 23:13 77.44517 8.52569 30419 ft 418 kts 239°
2026-04-28 23:14 77.42988 8.41451 30795 ft 415 kts 240°
2026-04-28 23:14 77.41438 8.30235 30991 ft 417 kts 239°
2026-04-28 23:14 77.39880 8.19018 31204 ft 417 kts 238°
2026-04-28 23:14 77.38319 8.07845 31497 ft 416 kts 239°
2026-04-28 23:15 77.36758 7.96732 31817 ft 414 kts 239°
2026-04-28 23:15 77.35200 7.85682 31996 ft 416 kts 238°
2026-04-28 23:15 77.33631 7.74631 32377 ft 413 kts 239°
2026-04-28 23:15 77.32069 7.63693 32654 ft 412 kts 238°
2026-04-28 23:16 77.30508 7.52819 33008 ft 409 kts 238°
2026-04-28 23:16 77.28944 7.41973 33216 ft 409 kts 238°
2026-04-28 23:16 77.27390 7.31254 33694 ft 404 kts 237°
2026-04-28 23:16 77.25839 7.20610 33970 ft 402 kts 237°
2026-04-28 23:17 77.24289 7.10022 34105 ft 403 kts 237°
2026-04-28 23:17 77.22761 6.99638 34428 ft 399 kts 237°
2026-04-28 23:17 77.21222 6.89236 34626 ft 399 kts 237°
2026-04-28 23:17 77.19679 6.78853 34811 ft 399 kts 237°
2026-04-28 23:18 77.16563 6.58054 34887 ft 404 kts 236°
2026-04-28 23:18 77.13386 6.37052 34888 ft 408 kts 236°
2026-04-28 23:19 77.10159 6.15942 34895 ft 412 kts 236°
2026-04-28 23:19 77.06887 5.94757 34874 ft 415 kts 235°
2026-04-28 23:20 77.03579 5.73555 34857 ft 419 kts 235°
2026-04-28 23:20 77.00222 5.52257 34871 ft 422 kts 235°
2026-04-28 23:21 76.96822 5.30904 34876 ft 425 kts 234°
2026-04-28 23:21 76.93427 5.09793 34839 ft 423 kts 234°
2026-04-28 23:22 76.89997 4.88691 34876 ft 422 kts 234°
2026-04-28 23:22 76.86549 4.67701 34860 ft 423 kts 233°
2026-04-28 23:23 76.83082 4.46782 34823 ft 424 kts 233°
2026-04-28 23:23 76.79588 4.25920 34825 ft 424 kts 233°
2026-04-28 23:24 76.76094 4.05268 34822 ft 422 kts 233°
2026-04-28 23:24 76.72610 3.84875 34791 ft 418 kts 233°
2026-04-28 23:25 76.69112 3.64607 34806 ft 420 kts 233°
2026-04-28 23:25 76.65600 3.44456 34791 ft 423 kts 232°
2026-04-28 23:26 76.62033 3.24180 34797 ft 422 kts 232°
2026-04-28 23:26 76.58457 3.04059 34798 ft 423 kts 232°
2026-04-28 23:27 76.54865 2.84017 34782 ft 424 kts 232°
2026-04-28 23:27 76.51236 2.63981 34783 ft 426 kts 231°
2026-04-28 23:28 76.47576 2.43975 34755 ft 429 kts 231°
2026-04-28 23:28 76.43883 2.23972 34762 ft 429 kts 231°
2026-04-28 23:29 76.40200 2.04223 34777 ft 428 kts 231°
2026-04-28 23:29 76.36452 1.84309 34751 ft 428 kts 230°
2026-04-28 23:30 76.32740 1.64774 34750 ft 428 kts 230°
2026-04-28 23:30 76.28989 1.45218 34762 ft 429 kts 230°
2026-04-28 23:31 76.25214 1.25726 34766 ft 429 kts 230°
2026-04-28 23:31 76.21426 1.06347 34736 ft 430 kts 230°
2026-04-28 23:32 76.17611 0.87010 34745 ft 430 kts 229°
2026-04-28 23:32 76.13804 0.67896 34728 ft 431 kts 229°
2026-04-28 23:33 76.09953 0.48736 34723 ft 431 kts 229°
2026-04-28 23:33 76.06079 0.29632 34733 ft 432 kts 229°
2026-04-28 23:34 76.02194 0.10634 34734 ft 432 kts 229°
2026-04-28 23:34 75.98140 -0.07776 34736 ft 433 kts 223°
2026-04-28 23:35 75.93714 -0.24638 34720 ft 433 kts 221°
2026-04-28 23:35 75.89285 -0.41149 34722 ft 433 kts 222°
2026-04-28 23:36 75.84831 -0.57786 34722 ft 432 kts 222°
2026-04-28 23:36 75.80392 -0.74348 34722 ft 432 kts 222°
2026-04-28 23:37 75.75952 -0.90808 34726 ft 431 kts 222°
2026-04-28 23:37 75.71532 -1.07060 34728 ft 431 kts 222°
2026-04-28 23:38 75.67078 -1.23293 34721 ft 430 kts 221°
2026-04-28 23:38 75.62618 -1.39405 34723 ft 430 kts 221°
2026-04-28 23:39 75.58153 -1.55402 34722 ft 430 kts 221°
2026-04-28 23:39 75.53682 -1.71283 34724 ft 430 kts 221°
2026-04-28 23:40 75.49191 -1.87105 34712 ft 429 kts 221°
2026-04-28 23:40 75.44698 -2.02797 34721 ft 429 kts 221°
2026-04-28 23:41 75.40219 -2.18309 34702 ft 429 kts 221°
2026-04-28 23:41 75.35713 -2.33790 34712 ft 429 kts 221°
2026-04-28 23:42 75.31187 -2.49209 34718 ft 429 kts 221°
2026-04-28 23:42 75.26655 -2.64524 34717 ft 429 kts 220°
2026-04-28 23:43 75.22105 -2.79770 34718 ft 430 kts 220°
2026-04-28 23:43 75.17572 -2.94839 34732 ft 430 kts 220°
2026-04-28 23:44 75.13001 -3.09910 34721 ft 430 kts 220°
2026-04-28 23:44 75.08407 -3.24933 34710 ft 430 kts 220°
2026-04-28 23:45 75.03813 -3.39832 34718 ft 430 kts 220°
2026-04-28 23:45 74.99991 -3.52138 34709 ft 429 kts 220°
2026-04-28 23:46 74.95395 -3.66826 34719 ft 429 kts 220°
2026-04-28 23:46 74.90795 -3.81411 34720 ft 429 kts 219°
2026-04-28 23:47 74.86179 -3.95930 34715 ft 429 kts 219°
2026-04-28 23:47 74.81547 -4.10383 34714 ft 429 kts 219°
2026-04-28 23:48 74.76913 -4.24729 34742 ft 429 kts 219°
2026-04-28 23:48 74.72265 -4.39004 34730 ft 429 kts 219°
2026-04-28 23:49 74.67641 -4.53096 34716 ft 429 kts 219°
2026-04-28 23:49 74.62974 -4.67208 34717 ft 429 kts 219°
2026-04-28 23:50 74.58304 -4.81217 34723 ft 429 kts 218°
2026-04-28 23:50 74.53628 -4.95136 34723 ft 429 kts 218°
2026-04-28 23:51 74.48974 -5.08882 34717 ft 428 kts 218°
2026-04-28 23:51 74.44289 -5.22616 34718 ft 428 kts 218°
2026-04-28 23:52 74.39591 -5.36281 34728 ft 428 kts 218°
2026-04-28 23:52 74.34884 -5.49870 34748 ft 428 kts 218°
2026-04-28 23:53 74.30168 -5.63378 34729 ft 428 kts 218°
2026-04-28 23:53 74.25443 -5.76810 34721 ft 428 kts 218°
2026-04-28 23:54 74.20722 -5.90131 34723 ft 427 kts 218°
2026-04-28 23:54 74.15993 -6.03373 34723 ft 427 kts 218°
2026-04-28 23:55 74.11296 -6.16429 34731 ft 427 kts 217°
2026-04-28 23:55 74.06556 -6.29505 34731 ft 427 kts 217°
2026-04-28 23:56 74.01815 -6.42488 34728 ft 427 kts 217°
2026-04-28 23:56 73.97058 -6.55417 34734 ft 427 kts 217°
2026-04-28 23:57 73.92298 -6.68260 34764 ft 427 kts 217°
2026-04-28 23:57 73.87520 -6.81059 34726 ft 427 kts 217°
2026-04-28 23:58 73.82770 -6.93685 34726 ft 426 kts 217°
2026-04-28 23:58 73.77997 -7.06285 34737 ft 426 kts 217°
2026-04-28 23:59 73.73221 -7.18799 34736 ft 426 kts 217°
2026-04-28 23:59 73.68435 -7.31248 34737 ft 426 kts 217°
2026-04-29 00:00 73.63645 -7.43617 34742 ft 425 kts 216°
2026-04-29 00:00 73.58881 -7.55833 34743 ft 425 kts 216°
2026-04-29 00:01 73.54077 -7.68065 34740 ft 425 kts 216°
2026-04-29 00:01 73.49268 -7.80220 34752 ft 425 kts 216°
2026-04-29 00:02 73.44451 -7.92310 34738 ft 425 kts 216°
2026-04-29 00:02 73.39642 -8.04296 34739 ft 424 kts 216°
2026-04-29 00:03 73.34829 -8.16206 34741 ft 423 kts 216°
2026-04-29 00:03 73.30022 -8.28021 34737 ft 423 kts 216°
2026-04-29 00:04 73.25238 -8.39696 34734 ft 423 kts 216°
2026-04-29 00:04 73.20411 -8.51394 34734 ft 423 kts 216°
2026-04-29 00:05 73.15586 -8.63009 34740 ft 423 kts 216°
2026-04-29 00:05 73.10752 -8.74565 34711 ft 423 kts 216°
2026-04-29 00:06 73.05918 -8.86049 34758 ft 422 kts 215°
2026-04-29 00:06 73.01119 -8.97369 34746 ft 421 kts 215°
2026-04-29 00:07 72.96133 -9.07872 34742 ft 421 kts 211°
2026-04-29 00:07 72.91058 -9.17814 34732 ft 420 kts 211°
2026-04-29 00:08 72.85983 -9.27706 34736 ft 420 kts 211°
2026-04-29 00:08 72.80920 -9.37560 34736 ft 420 kts 211°
2026-04-29 00:09 72.75843 -9.47400 34732 ft 420 kts 211°
2026-04-29 00:09 72.70802 -9.57113 34714 ft 419 kts 211°
2026-04-29 00:10 72.65739 -9.66805 34722 ft 419 kts 211°
2026-04-29 00:10 72.60678 -9.76428 34730 ft 418 kts 211°
2026-04-29 00:11 72.55606 -9.86007 34735 ft 418 kts 211°
2026-04-29 00:12 72.48021 -10.00219 34726 ft 416 kts 210°
2026-04-29 00:12 72.42973 -10.09601 34727 ft 415 kts 210°
2026-04-29 00:13 72.37960 -10.18857 34726 ft 415 kts 210°
2026-04-29 00:13 72.32897 -10.28147 34700 ft 414 kts 211°
2026-04-29 00:14 72.27867 -10.37318 34711 ft 413 kts 210°
2026-04-29 00:14 72.22866 -10.46377 34727 ft 412 kts 210°
2026-04-29 00:15 72.17841 -10.55426 34723 ft 412 kts 210°
2026-04-29 00:15 72.12814 -10.64419 34724 ft 412 kts 210°
2026-04-29 00:16 72.07781 -10.73368 34755 ft 413 kts 210°
2026-04-29 00:16 72.02731 -10.82292 34736 ft 413 kts 210°
2026-04-29 00:17 71.97678 -10.91163 34715 ft 412 kts 210°
2026-04-29 00:17 71.92631 -10.99968 34707 ft 411 kts 210°
2026-04-29 00:18 71.87626 -11.08647 34718 ft 410 kts 210°
2026-04-29 00:18 71.82599 -11.17313 34719 ft 409 kts 210°
2026-04-29 00:19 71.77578 -11.25915 34715 ft 409 kts 210°
2026-04-29 00:19 71.72562 -11.34456 34718 ft 409 kts 210°
2026-04-29 00:20 71.67572 -11.42903 34716 ft 409 kts 209°
2026-04-29 00:20 71.62542 -11.51365 34720 ft 409 kts 209°
2026-04-29 00:21 71.57499 -11.59798 34751 ft 409 kts 209°
2026-04-29 00:21 71.52456 -11.68179 34709 ft 408 kts 209°
2026-04-29 00:22 71.47434 -11.76476 34717 ft 407 kts 209°
2026-04-29 00:22 71.42420 -11.84713 34717 ft 407 kts 209°
2026-04-29 00:23 71.37426 -11.92866 34718 ft 406 kts 209°
2026-04-29 00:23 71.32407 -12.01014 34717 ft 406 kts 209°
2026-04-29 00:24 71.27384 -12.09121 34718 ft 406 kts 209°
2026-04-29 00:24 71.22354 -12.17190 34718 ft 406 kts 209°
2026-04-29 00:25 71.17319 -12.25221 34714 ft 406 kts 208°
2026-04-29 00:25 71.12293 -12.33189 34718 ft 405 kts 209°
2026-04-29 00:26 71.07269 -12.41110 34719 ft 405 kts 209°
2026-04-29 00:26 71.02248 -12.48980 34718 ft 405 kts 208°
2026-04-29 00:27 70.97257 -12.56759 34708 ft 405 kts 208°
2026-04-29 00:27 70.92229 -12.64551 34715 ft 405 kts 208°
2026-04-29 00:28 70.87190 -12.72314 34711 ft 405 kts 208°
2026-04-29 00:28 70.82153 -12.80030 34718 ft 405 kts 208°
2026-04-29 00:29 70.77117 -12.87702 34706 ft 405 kts 208°
2026-04-29 00:29 70.72096 -12.95307 34708 ft 405 kts 208°
2026-04-29 00:30 70.67021 -13.02950 34726 ft 405 kts 208°
2026-04-29 00:30 70.62001 -13.10469 34715 ft 405 kts 208°
2026-04-29 00:31 70.56941 -13.18003 34724 ft 406 kts 208°
2026-04-29 00:31 70.52731 -13.24241 34723 ft 405 kts 208°
2026-04-29 00:32 70.47678 -13.31691 34716 ft 405 kts 208°
2026-04-29 00:32 70.42623 -13.39100 34716 ft 404 kts 207°
2026-04-29 00:33 70.37577 -13.46456 34687 ft 403 kts 208°
2026-04-29 00:33 70.32543 -13.53755 34714 ft 402 kts 208°
2026-04-29 00:34 70.27552 -13.60951 34726 ft 401 kts 208°
2026-04-29 00:34 70.22524 -13.68161 34726 ft 401 kts 207°
2026-04-29 00:35 70.17500 -13.75329 34729 ft 401 kts 207°
2026-04-29 00:35 70.12475 -13.82457 34730 ft 401 kts 207°
2026-04-29 00:36 70.07476 -13.89509 34737 ft 402 kts 207°
2026-04-29 00:36 70.02432 -13.96598 34733 ft 402 kts 207°
2026-04-29 00:37 69.97404 -14.03696 34703 ft 401 kts 208°
2026-04-29 00:37 69.92418 -14.10966 34724 ft 400 kts 208°
2026-04-29 00:38 69.87474 -14.18175 34740 ft 399 kts 208°
2026-04-29 00:38 69.82494 -14.25381 34742 ft 400 kts 208°
2026-04-29 00:39 69.77507 -14.32542 34740 ft 400 kts 208°
2026-04-29 00:39 69.72518 -14.39663 34745 ft 400 kts 208°
2026-04-29 00:40 69.67513 -14.46766 34748 ft 400 kts 207°
2026-04-29 00:40 69.62544 -14.53781 34747 ft 400 kts 207°
2026-04-29 00:41 69.57534 -14.60814 34737 ft 400 kts 207°
2026-04-29 00:41 69.52526 -14.67812 34749 ft 400 kts 207°
2026-04-29 00:42 69.47517 -14.74774 34751 ft 400 kts 207°
2026-04-29 00:42 69.42502 -14.81709 34760 ft 400 kts 207°
2026-04-29 00:43 69.37512 -14.88572 34768 ft 400 kts 207°
2026-04-29 00:43 69.32490 -14.95445 34756 ft 401 kts 207°
2026-04-29 00:44 69.27464 -15.02285 34764 ft 401 kts 207°
2026-04-29 00:44 69.22436 -15.09095 34762 ft 401 kts 207°
2026-04-29 00:45 69.17406 -15.15870 34755 ft 399 kts 207°
2026-04-29 00:45 69.12394 -15.22586 34805 ft 399 kts 207°
2026-04-29 00:46 69.07370 -15.29284 34783 ft 400 kts 207°
2026-04-29 00:46 69.02344 -15.35954 34770 ft 400 kts 207°
2026-04-29 00:47 68.97318 -15.42589 34772 ft 399 kts 207°
2026-04-29 00:47 68.92293 -15.49189 34775 ft 399 kts 207°
2026-04-29 00:48 68.87270 -15.55752 34773 ft 399 kts 207°
2026-04-29 00:48 68.82267 -15.62256 34773 ft 399 kts 206°
2026-04-29 00:49 68.77243 -15.68753 34774 ft 397 kts 207°
2026-04-29 00:49 68.72227 -15.75210 34783 ft 397 kts 207°
2026-04-29 00:50 68.67215 -15.81630 34783 ft 397 kts 207°
2026-04-29 00:50 68.62194 -15.88029 34790 ft 399 kts 206°
2026-04-29 00:51 68.57185 -15.94382 34784 ft 399 kts 206°
2026-04-29 00:51 68.52142 -16.00745 34787 ft 399 kts 206°
2026-04-29 00:52 68.47098 -16.07079 34800 ft 399 kts 206°
2026-04-29 00:52 68.42052 -16.13384 34792 ft 399 kts 206°
2026-04-29 00:53 68.37010 -16.19651 34782 ft 398 kts 206°
2026-04-29 00:53 68.31981 -16.25872 34801 ft 397 kts 206°
2026-04-29 00:54 68.26979 -16.32032 34801 ft 397 kts 206°
2026-04-29 00:54 68.21941 -16.38205 34797 ft 397 kts 206°
2026-04-29 00:55 68.16898 -16.44355 34854 ft 398 kts 206°
2026-04-29 00:55 68.11846 -16.50485 34821 ft 398 kts 206°
2026-04-29 00:56 68.06789 -16.56592 34896 ft 399 kts 206°
2026-04-29 00:56 68.04255 -16.59640 35058 ft 398 kts 206°
2026-04-29 00:56 68.01727 -16.62675 35177 ft 398 kts 206°
2026-04-29 00:56 67.99205 -16.65693 35346 ft 397 kts 206°
2026-04-29 00:57 67.96715 -16.68667 35448 ft 398 kts 206°
2026-04-29 00:57 67.91646 -16.74703 35656 ft 399 kts 206°
2026-04-29 00:57 67.89115 -16.77704 35772 ft 398 kts 206°
2026-04-29 00:58 67.86579 -16.80706 35804 ft 400 kts 206°
2026-04-29 00:58 67.81478 -16.86720 35814 ft 401 kts 206°
2026-04-29 00:59 67.76372 -16.92710 35814 ft 401 kts 206°
2026-04-29 00:59 67.71264 -16.98675 35814 ft 401 kts 206°
2026-04-29 01:00 67.66180 -17.04583 35819 ft 402 kts 205°
2026-04-29 01:00 67.61067 -17.10494 35787 ft 400 kts 206°
2026-04-29 01:01 67.55967 -17.16365 35811 ft 399 kts 206°
2026-04-29 01:01 67.50907 -17.22164 35824 ft 399 kts 206°
2026-04-29 01:02 67.45817 -17.27969 35819 ft 399 kts 206°
2026-04-29 01:02 67.40735 -17.33738 35818 ft 398 kts 205°
2026-04-29 01:03 67.35654 -17.39479 35827 ft 398 kts 205°
2026-04-29 01:03 67.30567 -17.45199 35821 ft 398 kts 205°
2026-04-29 01:04 67.25476 -17.50897 35823 ft 398 kts 205°
2026-04-29 01:04 67.20387 -17.56567 35858 ft 397 kts 205°
2026-04-29 01:05 67.15305 -17.62203 35837 ft 398 kts 205°
2026-04-29 01:05 67.10214 -17.67823 35822 ft 398 kts 205°
2026-04-29 01:06 67.05157 -17.73380 35821 ft 398 kts 205°
2026-04-29 01:06 67.00067 -17.78948 35822 ft 398 kts 205°
2026-04-29 01:07 66.94979 -17.84489 35822 ft 397 kts 205°
2026-04-29 01:07 66.89882 -17.90013 35824 ft 398 kts 205°
2026-04-29 01:08 66.84787 -17.95512 35828 ft 398 kts 205°
2026-04-29 01:08 66.79685 -18.00991 35824 ft 398 kts 205°
2026-04-29 01:09 66.74587 -18.06443 35829 ft 398 kts 205°
2026-04-29 01:09 66.69512 -18.11845 35832 ft 398 kts 204°
2026-04-29 01:10 66.64397 -18.17266 35817 ft 398 kts 204°
2026-04-29 01:10 66.59293 -18.22650 35829 ft 397 kts 204°
2026-04-29 01:11 66.54197 -18.28002 35827 ft 397 kts 204°
2026-04-29 01:11 66.49100 -18.33331 35829 ft 396 kts 204°
2026-04-29 01:12 66.44043 -18.38596 35809 ft 395 kts 204°
2026-04-29 01:12 66.38972 -18.43850 35831 ft 394 kts 204°
2026-04-29 01:13 66.33902 -18.49082 35829 ft 394 kts 204°
2026-04-29 01:13 66.28826 -18.54297 35833 ft 394 kts 204°
2026-04-29 01:14 66.23788 -18.59448 35562 ft 383 kts 204°
2026-04-29 01:14 66.21340 -18.61941 34788 ft 379 kts 205°
2026-04-29 01:14 66.18897 -18.64426 33872 ft 380 kts 205°
2026-04-29 01:14 66.16444 -18.66919 32743 ft 381 kts 205°
2026-04-29 01:15 66.14031 -18.69362 32139 ft 371 kts 205°
2026-04-29 01:15 66.11696 -18.71714 32309 ft 358 kts 205°
2026-04-29 01:15 66.09028 -18.74408 32385 ft 362 kts 205°
2026-04-29 01:15 65.97328 -18.86188 32482 ft 381 kts 205°
2026-04-29 01:16 65.77135 -19.06175 32587 ft 400 kts 205°
2026-04-29 01:16 65.66674 -19.16371 32474 ft 398 kts 205°
2026-04-29 01:16 65.48488 -19.33868 32387 ft 383 kts 205°
2026-04-29 01:16 65.09911 -19.70084 32434 ft 368 kts 205°
2026-04-29 01:17 64.92063 -19.86687 32476 ft 367 kts 206°
2026-04-29 01:17 64.80440 -19.97432 32637 ft 382 kts 205°
2026-04-29 01:18 64.75553 -20.01787 32494 ft 362 kts 205°
2026-04-29 01:18 64.71661 -20.05252 31459 ft 358 kts 205°
2026-04-29 01:18 64.68570 -20.08018 30186 ft 354 kts 205°
2026-04-29 01:19 64.67046 -20.09383 29411 ft 353 kts 205°
2026-04-29 01:19 64.64742 -20.11450 27884 ft 357 kts 205°
2026-04-29 01:19 64.62438 -20.13511 27057 ft 353 kts 205°
2026-04-29 01:19 64.60145 -20.15560 26309 ft 352 kts 205°
2026-04-29 01:20 64.57846 -20.17610 25727 ft 357 kts 205°
2026-04-29 01:20 64.55476 -20.19726 25103 ft 369 kts 204°
2026-04-29 01:20 64.53100 -20.21836 24483 ft 361 kts 204°
2026-04-29 01:20 64.50770 -20.23896 23927 ft 355 kts 204°
2026-04-29 01:21 64.48478 -20.25920 23320 ft 349 kts 204°
2026-04-29 01:21 64.46232 -20.27901 22717 ft 343 kts 204°
2026-04-29 01:21 64.34766 -20.37910 19520 ft 323 kts 204°
2026-04-29 01:21 64.32649 -20.39790 19262 ft 316 kts 207°
2026-04-29 01:22 64.30769 -20.42567 18800 ft 335 kts 221°
2026-04-29 01:22 64.29238 -20.46582 18239 ft 332 kts 231°
2026-04-29 01:22 64.28043 -20.51200 17456 ft 338 kts 240°
2026-04-29 01:22 64.27373 -20.56461 16824 ft 349 kts 253°
2026-04-29 01:23 64.27035 -20.62008 16280 ft 349 kts 255°
2026-04-29 01:23 64.26006 -20.82023 14050 ft 337 kts 255°
2026-04-29 01:23 64.24062 -21.16702 10891 ft 303 kts 256°
2026-04-29 01:23 64.23804 -21.21486 10867 ft 292 kts 255°
2026-04-29 01:24 64.23549 -21.26009 10773 ft 286 kts 255°
2026-04-29 01:24 64.22496 -21.44141 10171 ft 267 kts 255°
2026-04-29 01:24 64.21912 -21.54321 9865 ft 245 kts 253°
2026-04-29 01:24 64.21679 -21.58097 9742 ft 236 kts 253°
2026-04-29 01:25 64.21440 -21.61844 9438 ft 237 kts 253°
2026-04-29 01:25 64.21203 -21.65611 8754 ft 244 kts 254°
2026-04-29 01:25 64.20945 -21.69615 7739 ft 262 kts 255°
2026-04-29 01:25 64.20681 -21.73839 7175 ft 265 kts 256°
2026-04-29 01:26 64.19855 -21.87591 6666 ft 240 kts 256°
2026-04-29 01:26 64.19175 -21.98718 6090 ft 231 kts 255°
2026-04-29 01:26 64.17523 -22.23880 4605 ft 221 kts 255°
2026-04-29 01:26 64.16932 -22.33094 4171 ft 213 kts 254°
2026-04-29 01:27 64.16709 -22.36446 3923 ft 211 kts 254°
2026-04-29 01:27 64.16490 -22.39754 3710 ft 208 kts 254°
2026-04-29 01:27 64.16259 -22.42990 3508 ft 203 kts 250°
2026-04-29 01:27 64.15829 -22.45969 3325 ft 197 kts 244°
2026-04-29 01:28 64.14779 -22.52430 2914 ft 195 kts 243°
2026-04-29 01:28 64.14310 -22.55339 2727 ft 193 kts 243°
2026-04-29 01:28 64.13803 -22.58116 2535 ft 182 kts 230°
2026-04-29 01:28 64.12834 -22.59494 2524 ft 162 kts 191°
2026-04-29 01:29 64.11726 -22.59908 2499 ft 154 kts 194°
2026-04-29 01:29 64.10716 -22.60275 2481 ft 143 kts 191°
2026-04-29 01:29 64.09747 -22.60458 2333 ft 136 kts 187°
2026-04-29 01:29 64.08827 -22.60515 2176 ft 132 kts 187°
2026-04-29 01:30 64.07935 -22.60530 1990 ft 126 kts 187°
2026-04-29 01:30 64.07078 -22.60535 1813 ft 122 kts 187°
2026-04-29 01:30 64.06214 -22.60539 1648 ft 126 kts 187°
2026-04-29 01:30 64.05357 -22.60538 1476 ft 123 kts 186°
2026-04-29 01:31 64.04501 -22.60538 1294 ft 123 kts 187°
2026-04-29 01:31 64.03640 -22.60540 1120 ft 125 kts 186°
2026-04-29 01:31 64.02774 -22.60542 945 ft 126 kts 186°
2026-04-29 01:31 64.01884 -22.60544 757 ft 127 kts 184°
2026-04-29 01:32 64.01004 -22.60538 588 ft 124 kts 186°
2026-04-29 01:32 64.00166 -22.60542 407 ft 118 kts 185°
2026-04-29 01:32 63.99342 -22.60542 255 ft 121 kts 184°
2026-04-29 01:32 63.98504 -22.60541 180 ft 117 kts 183°
2026-04-29 01:33 63.97795 -22.60567 147 ft 81 kts 180°
2026-04-29 01:33 63.97382 -22.60547 145 ft 36 kts 180°
2026-04-29 01:33 63.97152 -22.60570 142 ft 31 kts 186°
2026-04-29 01:33 63.96946 -22.60563 142 ft 29 kts 175°